Simultaneous Nadir Overpasses (SNOs) Predictions

Prediction of SNOs between GOES-17 and TERRA Satellite Orbit:

Table of predicted SNOs for the next 14.0 days since TLE Epoch: 6/11/2022
Index Date Time (GOES-17) GOES-17 Lat,Lon TERRA Lat,Lon Distance(km) Time Diff (sec)
1 06/12/2022 07:29:11 -0.04,-137.19 -0.20,-137.87 76.80 80
2 06/14/2022 07:19:37 -0.04,-137.19 0.45,-134.92 258.41 80
3 06/14/2022 19:38:12 0.04,-137.19 0.63,-140.08 328.44 80
4 06/16/2022 19:28:37 0.03,-137.17 0.03,-137.12 5.85 80
5 06/18/2022 19:16:22 0.03,-137.16 -0.57,-134.16 339.72 80
6 06/19/2022 07:35:06 -0.03,-137.15 -0.49,-139.36 251.56 80
7 06/21/2022 07:25:31 -0.02,-137.13 0.12,-136.41 82.42 80
8 06/23/2022 07:13:16 -0.02,-137.11 0.74,-133.45 416.19 80
9 06/23/2022 19:31:51 0.02,-137.11 0.33,-138.61 171.07 80
